Regional Weather Roundup
Issued by NWS

Home | Current Version | Previous Version | Graphics & Text | Print | Product List | Glossary On
Versions: 1 2 3 4 5 6 7 8 9 10 11 12 13 14 15 16 17 18 19 20 21 22 23 24 25 26 27 28 29 30 31 32 33 34 35 36 37 38 39 40 41 42 43 44 45 46 47 48 49 50
000
ASUS43 KOAX 010102
RWRNE

WEATHER ROUNDUP FOR NEBRASKA
NATIONAL WEATHER SERVICE OMAHA NE
800 PM CDT SAT APR 30 2016

NOTES: SATELLITE DATA IS BEING USED TO AUGMENT CLOUD COVER ABOVE
       12000 FEET.
       "FAIR" INDICATES FEW OR NO CLOUDS BELOW 12,000 FEET WITH NO
       SIGNIFICANT WEATHER AND/OR OBSTRUCTIONS TO VISIBILITY.

  * THESE STATIONS DO NOT REPORT WEATHER SUCH AS RAIN...SNOW OR FOG.

NEZ001>004-019>022-054>056-010200-
NEBRASKA PANHANDLE

CITY           SKY/WX    TMP DP  RH WIND       PRES   REMARKS
SCOTTSBLUFF    LGT RAIN  38  32  79 NW9       30.10R WCI  31
ALLIANCE       CLOUDY    34  33  96 N16       30.04S WCI  24
CHADRON        CLOUDY    45  32  60 NE13      30.10R
KIMBALL        LGT SNOW  33  33  99 N20       30.07R WCI  21
SIDNEY         LGT SNOW  33  32  96 N22       30.04R VSB 3/4 WCI  21
$$

NEZ057>060-069>072-079>082-010200-
SOUTHWEST NEBRASKA

CITY           SKY/WX    TMP DP  RH WIND       PRES   REMARKS
NORTH PLATTE   FLURRIES  35  33  92 N18G24    29.92R WCI  24
IMPERIAL       CLOUDY    36  33  89 N20G26    29.96R WCI  25
LEXINGTON      DRIZZLE   39  36  89 N14G22    29.88R WCI  31
MCCOOK         CLOUDY    39  35  86 N16       29.90R WCI  30
$$

NEZ005>010-023>029-035>040-094-010200-
NORTH CENTRAL NEBRASKA

CITY           SKY/WX    TMP DP  RH WIND       PRES   REMARKS
VALENTINE      LGT RAIN  39  36  89 NE22G33   30.02R WCI  29
AINSWORTH      LGT RAIN  39  38  94 NE30G36   29.98R WCI  27
BROKEN BOW     LGT RAIN  41  39  93 N14       29.87S FOG
ORD            LGT RAIN  44  42  93 N14       29.85R
$$

NEZ041-046>049-061>064-073>077-083>087-010200-
SOUTH CENTRAL NEBRASKA

CITY           SKY/WX    TMP DP  RH WIND       PRES   REMARKS
GRAND ISLAND   LGT RAIN  46  44  93 N10       29.83R FOG
AURORA         LGT RAIN  48  47  97 N8        29.81R
HASTINGS       CLOUDY    46  43  89 N12       29.82R
KEARNEY *      CLOUDY    43  39  87 N13       29.85R
YORK           LGT RAIN  48  48 100 NE12      29.80R
$$

NEZ011>018-030>034-042>045-010200-
NORTHEAST NEBRASKA

CITY           SKY/WX    TMP DP  RH WIND       PRES   REMARKS
NORFOLK        CLOUDY    44  42  93 NE13G24   29.86R FOG
ALBION         RAIN      45  43  94 NE16G22   29.85R
BLAIR          DRIZZLE   49  47  96 NE10      29.81S
COLUMBUS *     CLOUDY    46  39  76 NE14      29.83R
FREMONT        CLOUDY    48  48  99 NE12      29.83R FOG
TEKAMAH        LGT RAIN  48  47  96 NE10      29.85R FOG
$$

NEZ050>053-065>068-078-088>093-010200-
SOUTHEAST NEBRASKA

CITY           SKY/WX    TMP DP  RH WIND       PRES   REMARKS
LINCOLN        CLOUDY    52  50  93 NE10      29.81R
OMAHA EPPLEY   CLOUDY    50  48  93 E14       29.81S
FALLS CITY     CLOUDY    58  50  75 NW6       29.78R
$$

NEZ044-045-051>053-067-010200-
OMAHA AREA

CITY           SKY/WX    TMP DP  RH WIND       PRES   REMARKS
OMAHA EPPLEY   CLOUDY    50  48  93 E14       29.81S
BLAIR          DRIZZLE   49  47  96 NE10      29.81S
FREMONT        CLOUDY    48  48  99 NE12      29.83R FOG
OFFUTT AFB     CLOUDY    50  50 100 NE9       29.80R
$$




USA.gov is the U.S. government's official web portal to all federal, state and local government web resources and services.